Hlavní strana
METAR-TAF:

METAR-TAF

Letiště :

Blytheville Municipal Airport

Blytheville, Arkansas, Spojené státy americké

zeměpisná šířka: 35-56-20N, zeměpisná délka: 089-49-57W, výška: 78 m

Aktuální stav počasí

Zpráva byla vytvořena před 16 minutami, v 09:53 UTC
Jihojihozápadní vítr 6 kt
Teplota 7°C
Vlhkost vzduchu 81%
Tlak 1020 hPa
Viditelnost: 16.1 km
Jasno

METAR: KHKA 230953Z AUTO 21006KT 10SM CLR 07/04 A3013 RMK AO2 SLP202 T00720039 $

Čas: 05:09 (10:09 UTC)


TAF: chybějící

Stav a předpovědi počasí z více než 4 000 letišť (zprávy METAR a TAF).

Červené a žluté tečky na mapě představují dostupné meteorologické stanice.

Když kurzor umístíte na tečku, zobrazí se název stanice.

Pak kliknutím zobrazíte stav a předpověď počasí.

Chcete-li změnit mapu, kliknutím na zelené tlačítko se znaménkem +mapu přiblížíte, kliknutím na zelené tlačítko se znaménkem – mapu oddálíte a kliknutím na zelené šipky přejdete na sousední mapy.


METAR-TAF: